Location: *
(45.5667°S, 177.5167°W)
Time: 17:00:02
(UTC+00:00)

Cosmos 1459 Rocket - Pass Details

Date: 29 May 2022
Orbit: 936 x 1000 km, 83.0° (Epoch: 06 July)

Event Time Altitude Azimuth Distance (km) Brightness Sun altitude
Rises 05:14:17 0° 187° (S) 3,662 6.9 -9.7°
Reaches altitude 10° 05:16:48 10° 185° (S) 2,718 6.2 -10.2°
Maximum altitude 05:23:02 73° 99° (E) 1,020 4.0 -11.2°
Drops below altitude 10° 05:29:18 10° 14° (NNE) 2,730 6.4 -12.2°
Sets 05:31:49 0° 12° (NNE) 3,679 7.1 -12.6°
